Weather History for Russellville, AR

Change the Weather History Date:

Thursday, March 20, 2014

  Actual Average (KHOT) Record (KHOT)
Temperature  
Mean Temperature 50 °F -  
Max Temperature 70 °F 66 °F 84 °F (1952)
Min Temperature 30 °F 42 °F 15 °F (1965)
Degree Days  
Heating Degree Days 16    
Moisture  
Dew Point 30 °F    
Average Humidity 59    
Maximum Humidity 93    
Minimum Humidity 17    
Precipitation  
Precipitation 0.00 in - - ()
Sea Level Pressure  
Sea Level Pressure 30.12 in    
Wind  
Wind Speed 1 mph (South)    
Max Wind Speed 8 mph    
Max Gust Speed -    
Visibility 9 miles    
Events      
Averages and records for this station are not official NWS values.
T = Trace of Precipitation, MM = Missing Value Source: NWS Daily Summary

Daily Weather History Graph

Daily Weather History Graph

Search for Another Location

Airport:

Trip Planner

Search our weather history database for the weather conditions in past years. The results will help you decide how hot, cold, wet, or windy it might be!

Date:

Astronomy

Mar. 20, 2014 Rise Set
Actual Time 7:15 AM CDT 7:24 PM CDT
Civil Twilight 6:50 AM CDT 7:49 PM CDT
Nautical Twilight 6:21 AM CDT 8:19 PM CDT
Astronomical Twilight 5:51 AM CDT 8:49 PM CDT
Moon 11:35 PM CDT (3/20) 9:31 AM CDT (3/20)
Length of Visible Light 12h 58m
Length of Day
12h 08m
Waning Gibbous, 84% of the Moon is Illuminated
Mar 20
Waning Gibbous
Mar 23
Last Quarter
Mar 30
New
Apr 7
First Quarter
Apr 15
Full

Hourly Weather History & Observations

Time (CDT) Temp. Dew Point Humidity Pressure Visibility Wind Dir Wind Speed Gust Speed Precip Events Conditions
12:53 AM 36.0 °F 34.0 °F 93% 30.19 in 10.0 mi Calm Calm - N/A   Clear
1:53 AM 35.1 °F 32.0 °F 89% 30.19 in 9.0 mi Calm Calm - N/A   Clear
2:53 AM 33.1 °F 30.0 °F 89% 30.19 in 7.0 mi Calm Calm - N/A   Clear
3:53 AM 32.0 °F 30.0 °F 92% 30.19 in 6.0 mi Calm Calm - N/A   Clear
4:53 AM 30.9 °F 28.9 °F 92% 30.19 in 8.0 mi Calm Calm - N/A   Clear
5:53 AM 30.0 °F 28.0 °F 92% 30.19 in 7.0 mi Calm Calm - N/A   Clear
6:53 AM 30.0 °F 27.0 °F 88% 30.19 in 6.0 mi Calm Calm - N/A   Clear
7:53 AM 30.9 °F 28.0 °F 89% 30.19 in 7.0 mi Calm Calm - N/A   Clear
8:53 AM 39.0 °F 35.1 °F 86% 30.20 in 10.0 mi Calm Calm - N/A   Clear
9:53 AM 46.9 °F 37.0 °F 68% 30.21 in 10.0 mi Calm Calm - N/A   Clear
10:53 AM 53.1 °F 36.0 °F 52% 30.22 in 10.0 mi Calm Calm - N/A   Clear
11:53 AM 57.9 °F 30.0 °F 35% 30.19 in 10.0 mi Variable 4.6 mph - N/A   Clear
12:53 PM 62.1 °F 30.0 °F 30% 30.17 in 10.0 mi Variable 4.6 mph - N/A   Clear
1:53 PM 64.0 °F 24.1 °F 22% 30.13 in 10.0 mi South 6.9 mph - N/A   Clear
2:53 PM 66.0 °F 21.0 °F 18% 30.09 in 10.0 mi Variable 3.5 mph - N/A   Clear
3:53 PM 69.1 °F 24.1 °F 18% 30.05 in 10.0 mi SSE 4.6 mph - N/A   Clear
4:53 PM 69.1 °F 21.9 °F 17% 30.02 in 10.0 mi South 8.1 mph - N/A   Clear
5:53 PM 69.1 °F 23.0 °F 18% 30.02 in 10.0 mi Variable 3.5 mph - N/A   Clear
6:53 PM 66.0 °F 28.0 °F 24% 29.99 in 10.0 mi Variable 3.5 mph - N/A   Clear
7:53 PM 54.0 °F 32.0 °F 43% 29.99 in 10.0 mi Calm Calm - N/A   Clear
8:53 PM 48.9 °F 33.1 °F 54% 30.00 in 10.0 mi Calm Calm - N/A   Clear
9:53 PM 44.1 °F 35.1 °F 71% 30.00 in 10.0 mi Calm Calm - N/A   Clear
10:53 PM 42.1 °F 34.0 °F 73% 30.02 in 10.0 mi Calm Calm - N/A   Clear
11:53 PM 45.0 °F 30.9 °F 58% 30.03 in 10.0 mi Calm Calm - N/A   Clear